Time,B instrument,Bx,By,Bz,sigma B,Ion instrument,Status,Tp_par,Tp_perp,carrot,r_sun,clat,clong,earth_he_angle,n_p,vp_x,vp_y,vp_z,vth_p_par,vth_p_perp
1980-04-22 00:06:03,-1,nan,nan,nan,nan,1,3,nan,nan,1694,0.70206738,-5.7620478,185.93921,276.78687,nan,387.569,32.0198,-26.5603,nan,nan
1980-04-22 00:27:39,-1,nan,nan,nan,nan,1,3,nan,nan,1694,0.70191938,-5.7635736,185.74585,276.79272,nan,346.18,-9.51535,7.81734,nan,nan
1980-04-22 00:49:15,-1,nan,nan,nan,nan,1,3,nan,nan,1694,0.70176429,-5.7651711,185.55273,276.79883,nan,377.169,-87.5102,-26.1422,nan,nan
1980-04-22 01:10:51,-1,nan,nan,nan,nan,1,3,nan,nan,1694,0.70161623,-5.766696,185.36328,276.80469,nan,391.605,-54.2172,-59.0666,nan,nan
1980-04-22 01:32:27,-1,nan,nan,nan,nan,1,3,nan,nan,1694,0.70146108,-5.7682924,185.17017,276.81079,nan,344.323,-28.23,9.48039,nan,nan
1980-04-22 01:54:03,-1,nan,nan,nan,nan,1,3,nan,nan,1694,0.70130593,-5.7698889,184.97705,276.81689,nan,348.567,-21.5164,34.1014,nan,nan
1980-04-22 02:15:39,-1,nan,nan,nan,nan,1,3,nan,nan,1694,0.70115769,-5.7714128,184.78369,276.82275,nan,362.324,-3.71147,0.976053,nan,nan
1980-04-22 02:37:15,-1,nan,nan,nan,nan,1,3,nan,nan,1694,0.70100242,-5.7730093,184.59448,276.82886,nan,365.978,0.440182,-8.89218,nan,nan
1980-04-22 02:58:51,-1,nan,nan,nan,nan,1,3,nan,nan,1694,0.70085412,-5.7745323,184.40112,276.83472,nan,377.965,-26.2728,-45.8347,nan,nan
1980-04-22 03:20:27,-1,nan,nan,nan,nan,1,3,nan,nan,1694,0.70069873,-5.7761297,184.20825,276.84106,nan,361.148,-33.2125,-26.692,nan,nan
1980-04-22 03:42:03,-1,nan,nan,nan,nan,1,3,nan,nan,1694,0.70054322,-5.7777262,184.01514,276.84717,nan,365.964,-18.8395,-26.1347,nan,nan
1980-04-22 04:03:39,-1,nan,nan,nan,nan,1,3,nan,nan,1694,0.70039487,-5.7792501,183.82568,276.85303,nan,388.423,23.9685,-1.99763,nan,nan
1980-04-22 04:25:15,-1,nan,nan,nan,nan,1,3,nan,nan,1694,0.7002393,-5.7808466,183.63257,276.85913,nan,380.11,10.9397,-12.2258,nan,nan
1980-04-22 04:46:51,-1,nan,nan,nan,nan,1,3,nan,nan,1694,0.70009083,-5.7823706,183.43921,276.86499,nan,369.211,-8.87241,-20.3434,nan,nan
1980-04-22 05:08:27,-1,nan,nan,nan,nan,1,3,nan,nan,1694,0.69993526,-5.783967,183.24634,276.87134,nan,371.495,-0.552494,-12.4369,nan,nan
1980-04-22 05:30:03,-1,nan,nan,nan,nan,1,3,nan,nan,1694,0.69977957,-5.7855644,183.05713,276.87744,nan,369.938,-14.3422,-20.7911,nan,nan
1980-04-22 05:51:39,-1,nan,nan,nan,nan,1,3,nan,nan,1694,0.69963092,-5.7870884,182.86377,276.8833,nan,362.538,-15.6335,-8.15557,nan,nan
1980-04-22 06:13:15,-1,nan,nan,nan,nan,1,3,nan,nan,1694,0.69947517,-5.7886839,182.6709,276.88965,nan,360.535,-33.0129,5.87516,nan,nan
1980-04-22 07:13:46,-1,nan,nan,nan,nan,1,3,nan,nan,1694,0.69905013,-5.7930346,182.1333,276.90674,nan,365.922,-55.3466,39.8198,nan,nan
1980-04-22 07:15:16,-1,nan,nan,nan,nan,1,3,nan,nan,1694,0.699036,-5.7931795,182.12207,276.90723,nan,376.969,0.346337,67.076,nan,nan
1980-04-22 07:17:58,-1,nan,nan,nan,nan,1,4,nan,nan,1694,0.69902182,-5.7933245,182.09521,276.90771,nan,nan,nan,nan,nan,nan
1980-04-22 07:27:25,-1,nan,nan,nan,nan,1,3,nan,nan,1694,0.69895089,-5.7940493,182.01221,276.91064,nan,369.436,-5.68623,-23.0409,nan,nan
1980-04-22 07:28:46,1,-9.88571,3.41429,-3.32857,0.917405,1,1,59293.6,186741.0,1694,0.69894379,-5.7941217,182.00073,276.91089,7.45185,370.66,1.11786,-25.108,31.2868,55.5236
1980-04-22 07:30:07,1,-9.2,2.85714,-4.77143,0.84612,1,1,57730.4,189637.0,1694,0.69892967,-5.7942677,181.98975,276.91162,7.39265,376.072,-9.91911,-44.1719,30.8717,55.9524
1980-04-22 07:32:50,1,-5.45714,0.271429,10.8429,0.786363,1,1,55308.0,165366.0,1694,0.69891548,-5.7944126,181.96289,276.91211,6.39799,403.574,-26.2009,80.4598,30.217,52.2494
1980-04-22 07:34:11,1,-3.27778,-0.0111111,12.3444,1.00259,1,1,63472.6,150326.0,1694,0.6989013,-5.7945576,181.95166,276.9126,7.2938,414.732,-23.6985,78.021,32.3706,49.8167
1980-04-22 07:35:32,1,-1.6125,-0.0125,12.1625,0.586968,1,1,68697.3,167653.0,1694,0.6988942,-5.7946301,181.94019,276.91284,7.26318,427.02,-23.5086,80.6258,33.6766,52.6095
1980-04-22 07:36:53,1,-2.35,-1.425,12.375,0.62149,1,1,60098.1,186412.0,1694,0.69888711,-5.7947025,181.92896,276.91333,7.57504,420.34,-41.0586,79.6889,31.4984,55.4747
1980-04-22 07:38:14,1,-0.1125,-2.3625,12.2375,0.889259,1,1,61775.5,142759.0,1694,0.69887292,-5.7948475,181.91772,276.91382,6.22797,436.834,-46.6108,80.5898,31.9349,48.5468
1980-04-22 07:42:17,1,1.96667,-0.122222,11.8444,1.29862,1,1,55137.4,157724.0,1694,0.69884455,-5.7951374,181.87988,276.91504,6.88348,448.588,-27.874,78.801,30.1704,51.0277
1980-04-22 07:44:59,1,0.944444,4.2,10.1889,1.39328,1,1,74141.7,209114.0,1694,0.69883037,-5.7952824,181.85693,276.91553,8.82578,434.191,25.7618,56.8649,34.9856,58.7556
1980-04-22 07:46:20,1,-1.22222,2.18889,10.6222,3.05796,1,1,63063.1,216982.0,1694,0.69881624,-5.7954273,181.8457,276.91602,8.82824,440.587,0.883242,68.6294,32.266,59.8508
1980-04-22 07:47:41,1,0.0444444,1.42222,11.8111,0.921754,1,1,59142.6,148490.0,1694,0.69880915,-5.7954998,181.83032,276.91626,7.15995,438.645,-31.5202,79.8824,31.247,49.5115
1980-04-22 07:49:02,1,-0.6375,0.2625,12.2125,0.828119,1,1,61745.2,159949.0,1694,0.69879496,-5.7956448,181.81934,276.91699,6.68962,434.875,-29.4283,80.8397,31.9271,51.3864
1980-04-22 07:50:23,-1,nan,nan,nan,nan,1,4,nan,nan,1694,0.69878787,-5.7957172,181.80786,276.91724,nan,nan,nan,nan,nan,nan
1980-04-22 07:51:44,1,-1.33333,-1.9,12.1111,2.885,1,1,59271.0,151076.0,1694,0.69878078,-5.7957897,181.79639,276.91748,6.97103,422.796,-30.9587,79.8201,31.2809,49.9408
1980-04-22 07:53:05,1,-0.566667,-6.55556,11.3333,0.897046,1,1,70684.4,149875.0,1694,0.69876659,-5.7959347,181.78516,276.91797,6.15477,432.493,-61.3554,81.6843,34.1601,49.742
1980-04-22 07:54:26,1,-1.15,-5.025,11.75,0.770957,1,1,63186.4,135728.0,1694,0.6987595,-5.7960072,181.77002,276.91846,5.9197,422.502,-67.2603,77.6319,32.2976,47.3361
1980-04-22 07:55:47,1,1.23333,-1.26667,12.0111,0.564593,1,1,57393.3,155476.0,1694,0.6987524,-5.7960796,181.75854,276.9187,6.43693,443.647,-40.4034,78.6078,30.7814,50.6629
1980-04-22 07:57:08,1,-0.6375,-4.925,11.7875,0.71261,1,1,65173.3,173122.0,1694,0.69873822,-5.7962246,181.74731,276.91919,7.53036,440.772,-59.4123,80.2768,32.8014,53.4606
1980-04-22 07:58:29,1,-1.15556,-4.62222,11.7778,0.746349,1,1,60133.2,144501.0,1694,0.69873112,-5.7962971,181.73584,276.91943,6.29465,425.016,-52.6375,82.8327,31.5076,48.842
1980-04-22 07:59:50,1,-3.525,-4.175,11.6875,0.636273,1,1,68830.6,153384.0,1694,0.69872403,-5.7963705,181.72437,276.91968,6.47107,410.446,-58.4472,77.5258,33.7092,50.3208
1980-04-22 08:01:11,1,-0.466667,-0.788889,11.7,2.29465,1,1,65723.7,161049.0,1694,0.69870991,-5.7965155,181.71338,276.92041,7.31671,432.761,-33.3011,81.2982,32.9396,51.5628
1980-04-22 08:02:32,1,-3.37778,-4.4,11.4778,0.853171,1,1,56716.6,169740.0,1694,0.69870275,-5.7965879,181.698,276.92065,7.01925,412.376,-66.018,75.2417,30.5994,52.9359
1980-04-22 08:03:53,1,-3.5,-1.13333,11.9,0.362093,1,1,56243.8,161301.0,1694,0.69869566,-5.7966604,181.68652,276.9209,6.75822,409.482,-30.99,78.9178,30.4716,51.6031
1980-04-22 08:06:35,1,1.65556,-7.55556,9.02222,1.89854,1,1,52141.0,156446.0,1694,0.69867438,-5.7968779,181.66406,276.92188,6.49062,437.699,-79.6337,71.4281,29.3392,50.8206
1980-04-22 08:07:56,1,-1.67778,-0.933333,11.4,2.8561,1,1,64329.8,160929.0,1694,0.69866729,-5.7969503,181.65259,276.92212,7.03555,439.446,-34.7051,82.0733,32.5885,51.5437
1980-04-22 08:09:17,1,-5.62222,-2.87778,10.7333,1.91285,1,1,52514.1,163070.0,1694,0.6986531,-5.7970953,181.64136,276.92261,7.32392,395.508,-59.9507,71.567,29.4439,51.8853
1980-04-22 08:10:38,1,-7.2625,0.65,8.9125,3.20249,1,1,55083.9,163854.0,1694,0.69864601,-5.7971687,181.62598,276.92285,7.50601,384.949,-37.6957,68.9224,30.1558,52.0099
1980-04-22 08:11:59,1,-6.675,6.0125,5.3375,1.04058,1,1,59273.1,146452.0,1694,0.69863182,-5.7973137,181.61499,276.92358,6.80446,385.233,28.6303,29.2557,31.2814,49.1705
1980-04-22 08:13:20,1,-5.5875,3.6,6.7625,4.74641,1,1,63459.6,141183.0,1694,0.69862473,-5.7973862,181.60352,276.92383,6.3736,392.909,-12.6192,70.597,32.3673,48.278
1980-04-22 08:16:02,1,-7.6,5.0875,5.65,1.82923,1,1,64052.2,145506.0,1694,0.69860345,-5.7976036,181.58081,276.92456,6.47739,381.508,19.096,36.2158,32.5181,49.0116
1980-04-22 08:17:23,1,-8.8875,4.8,4.375,1.64026,1,1,47317.0,181449.0,1694,0.69859636,-5.7976761,181.56934,276.9248,7.52835,363.132,7.3006,22.9886,27.949,54.7313
1980-04-22 08:18:44,1,-11.175,1.3,1.8125,3.1037,1,1,56795.3,165628.0,1694,0.69858927,-5.7977486,181.5542,276.92529,7.63112,352.335,-22.2486,-9.28138,30.6206,52.2908
1980-04-22 08:20:05,1,-7.1375,6.4,5.3,0.887324,1,1,55653.7,172291.0,1694,0.69857508,-5.7978945,181.54297,276.92578,7.42871,377.363,21.2503,27.4961,30.3113,53.3322
1980-04-22 08:21:26,1,-2.3375,8.0875,4.6375,2.54966,1,1,96425.4,182697.0,1694,0.69856799,-5.797967,181.53149,276.92603,8.07614,412.079,46.4234,3.74852,39.8982,54.9192
1980-04-22 08:22:47,1,-1.275,8.8625,4.1875,1.16525,1,1,71679.8,135739.0,1694,0.69856089,-5.7980394,181.52002,276.92627,7.01398,428.766,41.373,24.2689,34.3998,47.3381
1980-04-22 08:24:08,1,-2.225,8.55,4.95,1.50395,1,1,77539.7,171108.0,1694,0.69854671,-5.7981844,181.50903,276.927,7.42562,419.841,40.8224,16.1327,35.7783,53.1487
1980-04-22 08:25:29,1,-1.28889,-3.45556,11.3778,2.57351,1,1,55869.7,167591.0,1694,0.69853961,-5.7982569,181.49756,276.92725,7.20324,416.893,-52.2963,77.1521,30.3701,52.5997
1980-04-22 08:26:50,1,-2.9,-0.233333,11.4667,1.73397,1,1,56720.8,176194.0,1694,0.69853252,-5.7983294,181.48218,276.92749,7.45405,401.519,-37.4772,74.6095,30.6005,53.9329
1980-04-22 08:28:11,-1,nan,nan,nan,nan,1,4,nan,nan,1694,0.69851834,-5.7984743,181.47095,276.92798,nan,nan,nan,nan,nan,nan
1980-04-22 08:29:32,1,-4.025,-6.5625,9.5625,1.46512,1,1,75734.2,185986.0,1694,0.69851124,-5.7985468,181.45947,276.92822,7.91761,405.816,-64.8882,66.0259,35.3593,55.4112
1980-04-22 08:30:53,1,-1.0,-0.675,11.9375,1.1188,1,1,55226.6,174230.0,1694,0.69850415,-5.7986202,181.44824,276.92871,7.17311,428.621,-29.863,80.4374,30.1948,53.6315
1980-04-22 08:32:14,1,-0.7125,-1.7875,12.0,1.40612,1,1,53894.5,156492.0,1694,0.69848996,-5.7987652,181.43701,276.9292,7.05367,424.52,-37.9274,77.7554,29.8284,50.8281
1980-04-22 08:33:35,1,-1.15556,-1.88889,12.2556,1.01068,1,1,59777.9,177455.0,1694,0.69848287,-5.7988377,181.42163,276.92944,7.54394,431.316,-29.8312,78.3831,31.4144,54.1255
1980-04-22 08:34:56,1,-0.222222,0.333333,12.6111,1.54,1,1,54096.3,163310.0,1694,0.69847578,-5.7989101,181.41016,276.92969,7.19892,434.292,-30.7778,78.019,29.8842,51.9235
1980-04-22 08:36:17,1,3.16667,0.0333333,12.2,0.994429,1,1,60912.1,196085.0,1694,0.69846159,-5.7990551,181.39917,276.93042,9.47981,471.322,-32.174,74.1339,31.711,56.8958
1980-04-22 08:37:38,1,4.7,5.61,8.5,0.975141,1,1,84068.8,188245.0,1694,0.6984545,-5.7991276,181.3877,276.93066,9.15755,484.331,12.3156,57.5814,37.2542,55.7468
1980-04-22 08:38:59,1,1.71,6.94,9.4,0.383797,1,1,77845.6,180982.0,1694,0.69844031,-5.7992725,181.37646,276.93115,8.5892,465.425,24.5681,53.686,35.8488,54.6607
1980-04-22 08:40:20,1,1.2375,6.0125,10.5625,0.745507,1,1,77665.6,186343.0,1694,0.69843322,-5.799346,181.36499,276.9314,9.40773,461.436,24.068,61.2734,35.8073,55.4644
1980-04-22 08:41:42,1,-3.98889,7.04444,9.94444,1.76866,1,1,49661.6,195033.0,1694,0.69842613,-5.7994184,181.34961,276.93164,8.3312,431.523,21.0283,65.9589,28.6331,56.7429
1980-04-22 08:43:02,1,-4.25,8.8,8.0,1.67407,1,1,74927.1,208312.0,1694,0.69841194,-5.7995634,181.33862,276.93237,9.75825,421.981,43.5838,33.8483,35.1704,58.6429
1980-04-22 08:44:24,-1,nan,nan,nan,nan,1,4,nan,nan,1694,0.69840485,-5.7996359,181.32715,276.93262,nan,nan,nan,nan,nan,nan
1980-04-22 08:45:44,1,-6.3375,9.9125,3.95,0.720026,1,1,62326.9,202835.0,1694,0.69839776,-5.7997084,181.31567,276.93286,9.36493,413.248,49.8496,18.585,32.0771,57.8668
1980-04-22 08:47:06,1,-5.14444,9.95556,5.27778,1.47045,1,1,77438.8,151901.0,1694,0.69838357,-5.7998533,181.30444,276.93335,7.32415,414.619,49.5031,23.4574,35.755,50.077
1980-04-22 08:48:26,1,-4.3,8.52857,8.1,1.48777,1,1,61661.3,202915.0,1694,0.69837648,-5.7999258,181.29321,276.93384,9.30116,422.648,38.251,44.3502,31.9054,57.8782
1980-04-22 08:49:48,1,-5.48889,10.3889,-0.766667,1.72426,1,1,94553.3,179924.0,1694,0.69836938,-5.7999983,181.27783,276.93408,9.54549,419.261,40.7182,-26.9122,39.509,54.5007
1980-04-22 08:51:08,1,-6.7625,10.1625,1.325,0.590815,1,1,64495.7,218631.0,1694,0.6983552,-5.8001442,181.2666,276.93457,9.69309,410.625,46.6862,-5.33593,32.6305,60.0778
1980-04-22 08:52:30,1,-6.6875,10.2375,2.2625,1.32317,1,1,71925.7,194320.0,1694,0.6983481,-5.8002167,181.25513,276.93481,10.2027,406.631,44.0601,4.32642,34.4588,56.6391
1980-04-22 08:53:50,1,-10.625,6.375,4.3875,1.07696,1,1,54807.7,184927.0,1694,0.69834101,-5.8002892,181.24365,276.93506,8.62222,388.511,28.7985,17.543,30.0801,55.2532
1980-04-22 08:55:11,1,-10.025,6.425,6.275,1.16539,1,1,69410.0,171090.0,1694,0.69832683,-5.8004341,181.23267,276.93579,9.30231,397.415,35.0867,24.1497,33.8508,53.1459
1980-04-22 08:56:32,1,-12.575,2.975,6.0375,0.899218,1,1,51667.9,184521.0,1694,0.69831973,-5.8005066,181.22119,276.93604,8.65581,377.062,6.23759,27.7704,29.2057,55.1926
1980-04-22 08:57:53,1,-12.2,5.1,3.8375,1.44217,1,1,60786.8,172586.0,1694,0.69831264,-5.8005791,181.20581,276.93628,8.21743,374.661,14.3392,13.565,31.6783,53.3779
1980-04-22 08:59:15,1,-11.35,5.5875,5.3125,0.699777,1,1,51519.6,196811.0,1694,0.69829845,-5.800724,181.19458,276.93677,9.01255,378.744,22.7625,22.1134,29.1638,57.001
1980-04-22 09:00:35,1,-14.0875,2.6875,2.0375,0.694285,1,1,46627.9,196796.0,1694,0.6982913,-5.8007975,181.18335,276.93726,8.69756,366.319,2.01247,6.62471,27.7447,56.9989
1980-04-22 09:01:57,1,-14.4,1.3,-0.371429,0.977919,1,1,49043.5,219581.0,1694,0.69828421,-5.8008699,181.17188,276.9375,9.75195,362.863,-11.9809,-8.94019,28.4543,60.2081
1980-04-22 09:03:17,1,-14.3714,2.28571,-1.91429,0.689868,1,1,52505.7,200963.0,1694,0.69827002,-5.8010149,181.16064,276.93799,8.75371,365.565,-7.21364,-25.1476,29.4416,57.5992
1980-04-22 09:04:39,1,-13.0625,3.7875,-3.2875,1.01957,1,1,53160.8,191636.0,1694,0.69826293,-5.8010874,181.14917,276.93823,8.48291,377.152,11.3715,-34.6528,29.6247,56.2466
1980-04-22 09:05:59,1,-12.8571,3.25714,-4.11429,0.510302,1,1,59030.0,211144.0,1694,0.69824874,-5.8012323,181.13428,276.93896,9.47115,373.12,1.04309,-37.081,31.2172,59.0402
1980-04-22 09:07:21,1,-8.31429,-0.785714,-10.7429,0.716568,1,1,69408.1,203467.0,1694,0.69824165,-5.8013048,181.1228,276.93921,8.64802,406.708,-17.7141,-78.9094,33.8503,57.9568
1980-04-22 09:08:41,1,-10.425,6.8625,-3.3875,1.88356,1,1,59391.9,186758.0,1694,0.69823456,-5.8013773,181.11133,276.93945,9.27446,393.66,25.6073,-31.3553,31.3128,55.5262
1980-04-22 09:10:03,1,-10.3,7.74286,3.0,1.80781,1,1,54222.1,165242.0,1694,0.69822037,-5.8015223,181.1001,276.93994,9.03106,386.844,27.0017,16.1771,29.9189,52.2297
1980-04-22 09:11:23,1,-10.4889,3.9,-5.92222,2.02935,1,1,45844.4,212513.0,1694,0.69821322,-5.8015947,181.08887,276.94043,8.52287,390.468,4.60882,-55.0496,27.5107,59.2313
1980-04-22 09:12:45,1,-11.8857,4.45714,-4.07143,2.20389,1,1,71863.3,202250.0,1694,0.69820613,-5.8016672,181.07739,276.94067,8.8258,381.567,-2.6941,-48.6211,34.4438,57.7833
1980-04-22 09:14:05,1,-4.8125,10.8875,5.1625,1.36456,1,1,81390.0,167229.0,1694,0.69819194,-5.8018122,181.06226,276.94116,9.23175,429.938,46.262,30.1158,36.6559,52.5429
1980-04-22 09:15:27,1,-10.0,6.6125,6.875,1.42319,1,1,65989.2,205947.0,1694,0.69818485,-5.8018847,181.05078,276.94141,9.96054,396.528,27.7469,34.2359,33.0061,58.309
1980-04-22 09:16:47,1,-11.2625,6.8125,-1.9125,2.321,1,1,62222.3,166229.0,1694,0.69817775,-5.8019571,181.03931,276.94165,9.17754,396.778,28.0487,-36.8736,32.0502,52.3855
1980-04-22 09:18:09,1,-12.1857,5.32857,-1.91429,1.06713,1,1,53689.7,199843.0,1694,0.69816357,-5.8021021,181.02832,276.94238,8.92444,376.551,8.08285,-32.4981,29.7717,57.4383
1980-04-22 09:19:29,1,-12.4714,1.67143,-6.45714,0.990362,1,1,45623.2,172842.0,1694,0.69815648,-5.8021746,181.01685,276.94263,8.92022,378.495,-3.97088,-29.5619,27.4442,53.4174
1980-04-22 09:20:51,1,-11.1,1.12857,-8.35714,1.10915,1,1,49956.3,173459.0,1694,0.69814932,-5.802247,181.00537,276.94287,8.41445,386.229,-1.46207,-42.229,28.7179,53.5126
1980-04-22 09:22:11,1,-9.275,-0.8875,-10.05,0.658004,1,1,59309.0,170409.0,1694,0.69813514,-5.802392,180.99048,276.9436,8.35804,403.207,-20.4574,-64.4242,31.2909,53.04
1980-04-22 09:23:33,1,-10.6571,0.842857,-8.5,0.973527,1,1,52985.9,174020.0,1694,0.69812804,-5.8024645,180.979,276.94385,8.36607,398.331,-5.98552,-61.152,29.5759,53.5991
1980-04-22 09:24:54,1,-11.05,-0.65,-7.55,2.94109,1,1,47459.2,172250.0,1694,0.69812095,-5.802537,180.96753,276.94409,8.13108,391.327,-41.5703,-54.2356,27.991,53.3258
1980-04-22 09:26:15,1,-7.72857,1.84286,-10.5429,1.38092,1,1,52238.2,163091.0,1694,0.69810677,-5.8026819,180.9563,276.94458,7.43486,403.369,-2.36977,-65.0496,29.3665,51.8886
1980-04-22 09:27:35,1,-9.2375,-0.5,-10.2625,1.36828,1,1,56480.4,182493.0,1694,0.69809967,-5.8027544,180.94482,276.94482,8.40513,397.686,-22.8385,-66.8343,30.5356,54.8884
1980-04-22 09:28:57,1,-10.4667,-1.46667,-9.26667,0.891939,1,1,54653.7,154324.0,1694,0.69809258,-5.8028278,180.92969,276.94531,7.43568,401.367,-33.1498,-68.2479,30.0378,50.4748
1980-04-22 09:30:17,1,-9.675,-2.5125,-10.15,0.447737,1,1,50804.7,166881.0,1694,0.69807839,-5.8029728,180.91846,276.9458,8.18423,403.285,-38.1615,-69.6544,28.9607,52.4881
1980-04-22 09:31:39,1,-10.6375,-3.15,-9.2,0.965579,1,1,55648.2,177332.0,1694,0.69807124,-5.8030453,180.90698,276.94604,7.60342,398.112,-38.4511,-61.264,30.3098,54.1067
1980-04-22 09:32:59,-1,nan,nan,nan,nan,1,4,nan,nan,1694,0.69805706,-5.8031902,180.896,276.94678,nan,nan,nan,nan,nan,nan
1980-04-22 09:34:21,1,-14.4,0.128571,-1.98571,0.588322,1,1,55167.7,191776.0,1694,0.69804996,-5.8032627,180.88452,276.94702,9.78076,368.232,-17.5395,-21.9196,30.1787,56.2672
1980-04-22 09:35:41,1,-14.3571,1.74286,2.2,0.979379,1,1,57702.1,196917.0,1694,0.69804287,-5.8033352,180.87305,276.94727,9.43328,367.311,-4.50331,15.3039,30.8641,57.0164
1980-04-22 09:37:03,1,-14.4857,0.157143,2.84286,0.548095,1,1,50838.9,191486.0,1694,0.69802868,-5.8034801,180.85791,276.94775,9.59225,365.419,-16.0167,9.54456,28.9705,56.2246
1980-04-22 09:38:23,1,-14.3,1.17143,1.22857,0.926481,1,1,55486.1,204502.0,1694,0.69802159,-5.8035526,180.84644,276.948,10.5111,367.893,-12.8547,-1.54143,30.2656,58.104
1980-04-22 09:39:45,1,-13.5375,3.8125,2.075,0.893204,1,1,48646.1,188763.0,1694,0.6980145,-5.8036251,180.83521,276.94849,9.24825,368.046,1.91287,3.75109,28.3388,55.8234
1980-04-22 09:41:05,1,-13.0875,3.925,3.9,1.70821,1,1,48539.7,200302.0,1694,0.69800025,-5.8037701,180.82397,276.94897,9.8916,371.458,4.70489,18.6525,28.3078,57.5043
1980-04-22 09:42:27,1,-13.7429,3.5,2.34286,0.429998,1,1,54738.6,204498.0,1694,0.69799316,-5.8038425,180.8125,276.94922,9.52259,371.263,10.0485,2.07279,30.0611,58.1036
1980-04-22 09:43:47,1,-14.1857,1.81429,2.75714,1.80374,1,1,57890.6,166672.0,1694,0.69798607,-5.803915,180.80103,276.94946,8.75458,368.686,6.7676,4.40557,30.9145,52.4552
1980-04-22 09:45:09,1,-14.3286,0.4,1.25714,0.830785,1,1,50757.7,210740.0,1694,0.69797188,-5.80406,180.78613,276.9502,10.1057,364.037,-21.613,-0.33745,28.9473,58.9836
1980-04-22 09:46:29,1,-13.8,2.78571,1.62857,1.01015,1,1,69452.2,195135.0,1694,0.69796479,-5.8041325,180.77466,276.95044,9.86141,369.552,3.18716,-16.6178,33.8611,56.7578
1980-04-22 09:47:51,1,-14.1571,0.928571,-0.414286,0.723089,1,1,50118.1,184176.0,1694,0.69795769,-5.8042049,180.76318,276.95068,9.05179,364.608,-14.2993,-11.0184,28.7644,55.141
1980-04-22 09:49:11,1,-14.0571,2.32857,2.01429,1.22358,1,1,44478.7,181661.0,1694,0.69794351,-5.8043499,180.75195,276.95117,8.72051,370.08,-1.31611,8.89192,27.0978,54.7632
1980-04-22 09:50:33,1,-14.4625,0.3625,2.6,0.93391,1,1,51751.6,188434.0,1694,0.69793636,-5.8044224,180.74072,276.95166,9.25027,369.225,-6.02532,9.81316,29.2294,55.7747
1980-04-22 09:51:54,1,-14.3857,1.72857,1.65714,1.45308,1,1,46936.8,190886.0,1694,0.69792926,-5.8044949,180.72925,276.9519,9.83241,370.582,-3.34057,9.47364,27.8365,56.1365
1980-04-22 09:53:15,1,-6.4125,9.2375,7.0625,1.12396,1,1,59175.9,177448.0,1694,0.69791508,-5.8046398,180.71411,276.95239,9.63412,415.073,37.0225,40.8626,31.2558,54.1245
1980-04-22 09:54:36,1,-5.85,8.9875,7.7125,2.23879,1,1,55771.4,207799.0,1694,0.69790798,-5.8047123,180.70264,276.95264,10.208,401.824,29.3769,39.0671,30.3434,58.5705
1980-04-22 09:55:57,1,-7.05,8.2125,4.925,4.54208,1,1,66089.2,156163.0,1694,0.69790089,-5.8047848,180.69141,276.95313,7.42666,416.575,43.8776,31.1797,33.0311,50.7746
1980-04-22 10:02:01,1,-6.67333,10.6867,-1.75333,1.03421,1,1,61022.4,207431.0,1694,0.69787788,-5.7275805,180.55124,276.86765,10.184,411.889,49.9799,-20.9084,31.7397,58.5188
1980-04-22 10:02:14,1,-7.08667,10.2067,-1.18667,2.65159,1,1,86986.7,194576.0,1694,0.69785827,-5.8052206,180.63452,276.95483,10.5845,381.751,14.299,-31.7863,37.8952,56.6765
1980-04-22 10:02:18,1,-7.56,9.96,-0.466667,2.98133,1,1,66282.6,167751.0,1694,0.69785118,-5.8052921,180.63477,276.95508,8.62688,401.951,42.3995,-25.4634,33.0794,52.6247
1980-04-22 10:02:41,1,-9.39375,8.65,2.3625,2.32092,1,1,92379.3,258659.0,1694,0.69785118,-5.8052931,180.63086,276.95508,12.2266,387.89,17.3036,37.8122,39.0522,65.3465
1980-04-22 10:03:22,-1,nan,nan,nan,nan,1,4,nan,nan,1694,0.69784409,-5.8053646,180.6272,276.95532,nan,nan,nan,nan,nan,nan
1980-04-22 10:04:02,1,-13.0333,3.49333,-1.54,2.71046,1,1,56792.9,196309.0,1694,0.697837,-5.8054371,180.61963,276.95557,9.02375,373.431,17.4374,-14.1873,30.62,56.9282
1980-04-22 10:04:43,1,-14.2857,-0.05,-0.535714,2.43669,1,1,47586.1,205257.0,1694,0.697837,-5.8054371,180.61182,276.95557,9.47315,363.672,-23.3199,-12.8084,28.0284,58.2112
1980-04-22 10:05:23,1,-13.6357,3.43571,1.2,2.47421,1,1,53205.9,188143.0,1694,0.69782984,-5.8055096,180.60815,276.95581,8.61518,368.321,13.9655,-9.17558,29.6372,55.7317
1980-04-22 10:06:04,1,-13.6267,-2.58667,5.63333,1.75385,1,1,54109.0,208330.0,1694,0.69782275,-5.805582,180.60083,276.9563,9.08152,368.09,-35.5111,33.7553,29.8877,58.6454
1980-04-22 10:06:44,1,-13.7067,-1.65333,6.5,0.862812,1,1,50192.1,219508.0,1694,0.69782275,-5.805582,180.59692,276.9563,9.75525,364.849,-26.0125,33.9173,28.7856,60.1981
1980-04-22 10:07:25,1,-13.2857,-4.48571,6.15714,1.24924,1,1,73356.3,167123.0,1694,0.69781566,-5.8056545,180.58936,276.95654,7.83629,371.357,-50.5627,34.1169,34.7998,52.5261
1980-04-22 10:08:05,1,-13.0467,-5.76,5.75333,1.60189,1,1,56232.8,216826.0,1694,0.69780856,-5.805727,180.58569,276.95679,9.79938,370.388,-61.314,18.6849,30.4686,59.8292
1980-04-22 10:08:46,1,-11.7133,-4.15333,8.36667,2.73481,1,1,50564.6,209073.0,1694,0.69780856,-5.805727,180.57788,276.95679,9.25545,372.177,-51.7118,41.3966,28.8922,58.7499
1980-04-22 10:09:26,1,-11.3867,-0.133333,9.76667,1.29058,1,1,50841.8,198384.0,1694,0.69780147,-5.8057995,180.57031,276.95703,8.56076,374.711,-24.0182,48.8677,28.9713,57.2283
1980-04-22 10:10:07,1,-9.91333,-1.87333,11.3333,0.886942,1,1,52573.1,191603.0,1694,0.69779432,-5.805872,180.56665,276.95728,8.64725,385.872,-35.6923,63.9225,29.4605,56.2418
1980-04-22 10:10:47,-1,nan,nan,nan,nan,1,4,nan,nan,1694,0.69779432,-5.805872,180.55884,276.95728,nan,nan,nan,nan,nan,nan
1980-04-22 10:11:28,1,-8.90667,1.64667,11.1933,1.83623,1,1,50238.6,207694.0,1694,0.69778723,-5.8059444,180.55518,276.95752,8.70576,395.989,-7.00224,69.1042,28.799,58.5558
1980-04-22 10:12:08,1,-10.7312,3.3375,8.64375,2.37027,1,1,58760.9,183517.0,1694,0.69778013,-5.8060169,180.54785,276.95801,9.25986,378.497,-3.47526,46.7228,31.146,55.0423
1980-04-22 10:12:49,1,-5.27333,0.0133333,13.6333,1.95209,1,1,52863.8,251413.0,1694,0.69778013,-5.8060169,180.54004,276.95801,11.9641,414.813,-20.9378,73.2655,29.5418,64.4246
1980-04-22 10:13:29,1,-5.65294,2.88235,12.4824,3.71477,1,1,62182.8,192381.0,1694,0.69777304,-5.8060894,180.53638,276.95825,9.23549,409.204,-5.1131,71.6136,32.04,56.3558
1980-04-22 10:14:10,1,-11.3812,-0.9875,9.425,2.82944,1,1,67273.4,218585.0,1694,0.69776595,-5.8061619,180.52881,276.9585,10.5733,376.518,-18.1644,50.9513,33.3257,60.0714